When you browse on this site, cookies collect data to enhance your experience and personalize the content and advertising you see.
Visit our Privacy Policy to learn more. By continuing to use the site, you agree to this use of cookies and data.

Hourly Weather Ainazi

Today, 15 July, Wednesday

Time Temperature Precipitation Wind Pressure Humidity
00:00 +12°C° 0 mm 2 mps 760 mmHg 75%
01:00 +10°C° 0 mm 2 mps 760 mmHg 77%
02:00 +10°C° 0 mm 2 mps 760 mmHg 80%
03:00 +10°C° 0 mm 2 mps 760 mmHg 79%
04:00 +10°C° 0 mm 2 mps 760 mmHg 78%
05:00 +12°C° 0 mm 1 mps 760 mmHg 77%
06:00 +14°C° 0 mm 1 mps 760 mmHg 70%
07:00 +16°C° 0 mm 1 mps 760 mmHg 62%
08:00 +20°C° 0 mm 1 mps 760 mmHg 55%
09:00 +21°C° 0 mm 1 mps 760 mmHg 52%
10:00 +21°C° 0 mm 1 mps 760 mmHg 49%
11:00 +22°C° 0 mm 1 mps 759 mmHg 45%
12:00 +23°C° 0 mm 2 mps 759 mmHg 44%
13:00 +23°C° 0 mm 2 mps 759 mmHg 43%
14:00 +23°C° 0 mm 2 mps 759 mmHg 42%
15:00 +23°C° 0 mm 2 mps 759 mmHg 43%
16:00 +23°C° 0 mm 2 mps 759 mmHg 45%
17:00 +22°C° 0 mm 3 mps 759 mmHg 47%
18:00 +20°C° 0 mm 3 mps 759 mmHg 56%
19:00 +18°C° 0 mm 3 mps 758 mmHg 64%
20:00 +17°C° 0 mm 3 mps 758 mmHg 73%
21:00 +16°C° 0 mm 3 mps 758 mmHg 75%
22:00 +15°C° 0 mm 2 mps 759 mmHg 78%
23:00 +14°C° 0 mm 2 mps 759 mmHg 80%

Tomorrow, 16 July, Thursday

Time Temperature Precipitation Wind Pressure Humidity
00:00 +14°C° 0 mm 2 mps 759 mmHg 81%
01:00 +13°C° 0 mm 2 mps 759 mmHg 81%
02:00 +13°C° 0 mm 2 mps 759 mmHg 81%
03:00 +13°C° 0 mm 2 mps 759 mmHg 81%
04:00 +13°C° 0 mm 2 mps 758 mmHg 80%
05:00 +13°C° 0 mm 2 mps 758 mmHg 80%
06:00 +15°C° 0 mm 1 mps 758 mmHg 73%
07:00 +18°C° 0 mm 1 mps 758 mmHg 66%
08:00 +20°C° 0 mm 1 mps 758 mmHg 59%
09:00 +20°C° 0 mm 2 mps 758 mmHg 55%
10:00 +21°C° 0 mm 2 mps 758 mmHg 52%
11:00 +23°C° 0 mm 2 mps 758 mmHg 48%
12:00 +24°C° 0 mm 3 mps 758 mmHg 47%
13:00 +24°C° 0 mm 3 mps 758 mmHg 47%
14:00 +25°C° 0 mm 4 mps 758 mmHg 47%
15:00 +23°C° 0 mm 4 mps 758 mmHg 50%
16:00 +23°C° 0 mm 4 mps 758 mmHg 52%
17:00 +23°C° 0 mm 4 mps 758 mmHg 55%
18:00 +21°C° 0 mm 4 mps 758 mmHg 62%
19:00 +20°C° 0 mm 3 mps 758 mmHg 68%
20:00 +19°C° 0 mm 3 mps 758 mmHg 75%
21:00 +18°C° 0 mm 3 mps 758 mmHg 76%
22:00 +17°C° 0 mm 3 mps 759 mmHg 78%
23:00 +14°C° 0 mm 3 mps 759 mmHg 80%

Day after tomorrow, 17 July, Friday

Time Temperature Precipitation Wind Pressure Humidity
00:00 +15°C° 0 mm 2 mps 759 mmHg 82%
01:00 +14°C° 0 mm 2 mps 759 mmHg 84%
02:00 +14°C° 0 mm 1 mps 759 mmHg 86%
03:00 +14°C° 0 mm 1 mps 759 mmHg 85%
04:00 +14°C° 0 mm 1 mps 760 mmHg 85%
05:00 +14°C° 0 mm 1 mps 760 mmHg 85%
06:00 +16°C° 0 mm 1 mps 760 mmHg 77%
07:00 +20°C° 0 mm 1 mps 760 mmHg 69%
08:00 +22°C° 0 mm 1 mps 760 mmHg 62%
09:00 +23°C° 0 mm 1 mps 760 mmHg 56%
10:00 +24°C° 0 mm 2 mps 760 mmHg 51%
11:00 +26°C° 0 mm 2 mps 760 mmHg 45%
12:00 +25°C° 0 mm 2 mps 761 mmHg 47%
13:00 +25°C° 0 mm 3 mps 761 mmHg 49%
14:00 +25°C° 0 mm 3 mps 761 mmHg 51%
15:00 +25°C° 0 mm 3 mps 761 mmHg 51%
16:00 +25°C° 0 mm 3 mps 761 mmHg 51%
17:00 +25°C° 0 mm 3 mps 761 mmHg 50%
18:00 +24°C° 0 mm 3 mps 761 mmHg 58%
19:00 +21°C° 0 mm 3 mps 761 mmHg 66%
20:00 +19°C° 0 mm 3 mps 761 mmHg 74%
21:00 +18°C° 0 mm 3 mps 761 mmHg 75%
22:00 +17°C° 0 mm 3 mps 762 mmHg 76%
23:00 +16°C° 0 mm 2 mps 762 mmHg 77%

18 July, Saturday

Time Temperature Precipitation Wind Pressure Humidity
00:00 +16°C° 0 mm 2 mps 762 mmHg 80%
01:00 +15°C° 0 mm 2 mps 762 mmHg 82%
02:00 +15°C° 0 mm 2 mps 763 mmHg 85%
03:00 +15°C° 0 mm 1 mps 763 mmHg 85%
04:00 +15°C° 0 mm 1 mps 763 mmHg 85%
05:00 +15°C° 0 mm 1 mps 763 mmHg 85%
06:00 +18°C° 0 mm 1 mps 763 mmHg 78%
07:00 +21°C° 0 mm 1 mps 763 mmHg 70%
08:00 +21°C° 0 mm 0 mps 763 mmHg 62%
09:00 +24°C° 0 mm 1 mps 763 mmHg 57%
10:00 +26°C° 0 mm 1 mps 763 mmHg 52%
11:00 +27°C° 0 mm 1 mps 763 mmHg 47%
12:00 +27°C° 0 mm 1 mps 763 mmHg 48%
13:00 +27°C° 0 mm 2 mps 763 mmHg 48%
14:00 +26°C° 0 mm 2 mps 763 mmHg 49%
15:00 +26°C° 0 mm 2 mps 763 mmHg 50%
16:00 +26°C° 0 mm 2 mps 763 mmHg 51%
17:00 +26°C° 0 mm 2 mps 762 mmHg 52%
18:00 +24°C° 0 mm 2 mps 762 mmHg 59%
19:00 +23°C° 0 mm 2 mps 763 mmHg 65%
20:00 +21°C° 0 mm 1 mps 763 mmHg 72%
21:00 +21°C° 0 mm 1 mps 763 mmHg 72%
22:00 +19°C° 0 mm 2 mps 763 mmHg 71%
23:00 +18°C° 0 mm 2 mps 763 mmHg 71%

19 July, Sunday

Time Temperature Precipitation Wind Pressure Humidity
00:00 +18°C° 0 mm 2 mps 763 mmHg 73%
01:00 +17°C° 0 mm 2 mps 763 mmHg 75%
02:00 +17°C° 0 mm 2 mps 763 mmHg 78%
03:00 +17°C° 0 mm 2 mps 763 mmHg 79%
04:00 +17°C° 0 mm 2 mps 763 mmHg 81%
05:00 +17°C° 0 mm 2 mps 763 mmHg 82%
06:00 +19°C° 0 mm 2 mps 763 mmHg 78%
07:00 +20°C° 0 mm 2 mps 763 mmHg 73%
08:00 +23°C° 0 mm 2 mps 763 mmHg 68%
09:00 +24°C° 0 mm 1 mps 763 mmHg 63%
10:00 +25°C° 0 mm 1 mps 763 mmHg 58%
11:00 +27°C° 0 mm 1 mps 763 mmHg 53%
12:00 +27°C° 0 mm 1 mps 763 mmHg 51%
13:00 +28°C° 0 mm 1 mps 762 mmHg 50%
14:00 +28°C° 0 mm 1 mps 762 mmHg 48%
15:00 +27°C° 0 mm 1 mps 762 mmHg 51%
16:00 +27°C° 0 mm 1 mps 762 mmHg 54%
17:00 +27°C° 0 mm 2 mps 761 mmHg 57%
18:00 +25°C° 0 mm 2 mps 761 mmHg 63%
19:00 +24°C° 0 mm 2 mps 761 mmHg 69%
20:00 +23°C° 0 mm 2 mps 761 mmHg 76%
21:00 +21°C° 0 mm 2 mps 761 mmHg 77%
22:00 +20°C° 0 mm 2 mps 761 mmHg 79%
23:00 +19°C° 0 mm 2 mps 761 mmHg 81%

20 July, Monday

Time Temperature Precipitation Wind Pressure Humidity
00:00 +18°C° 0 mm 3 mps 761 mmHg 83%
01:00 +18°C° 0 mm 3 mps 761 mmHg 84%
02:00 +17°C° 0 mm 3 mps 760 mmHg 86%
03:00 +17°C° 0 mm 3 mps 760 mmHg 86%
04:00 +17°C° 0 mm 3 mps 760 mmHg 86%
05:00 +17°C° 0 mm 3 mps 760 mmHg 86%
06:00 +19°C° 0 mm 3 mps 760 mmHg 80%
07:00 +21°C° 0 mm 2 mps 760 mmHg 73%
08:00 +23°C° 0 mm 2 mps 759 mmHg 66%
09:00 +25°C° 0 mm 2 mps 759 mmHg 60%
10:00 +26°C° 0 mm 2 mps 759 mmHg 54%
11:00 +28°C° 0 mm 2 mps 759 mmHg 48%
12:00 +28°C° 0 mm 2 mps 758 mmHg 47%
13:00 +28°C° 0 mm 2 mps 758 mmHg 46%
14:00 +29°C° 0 mm 1 mps 758 mmHg 45%
15:00 +28°C° 0 mm 1 mps 757 mmHg 47%
16:00 +28°C° 0 mm 2 mps 757 mmHg 48%
17:00 +28°C° 0 mm 2 mps 757 mmHg 49%
18:00 +26°C° 0 mm 2 mps 757 mmHg 58%
19:00 +24°C° 0 mm 1 mps 756 mmHg 66%
20:00 +23°C° 0 mm 1 mps 756 mmHg 75%
21:00 +22°C° 0 mm 1 mps 756 mmHg 77%
22:00 +21°C° 0 mm 1 mps 756 mmHg 79%
23:00 +19°C° 0 mm 1 mps 756 mmHg 82%
Show more